Weather History for CYRB - February, 2013

Change the Weather History Date:

Tuesday, February 26, 2013

  Actual Average Record
Temperature  
Mean Temperature -38 °F -  
Max Temperature -33 °F -18 °F 8 °F (2006)
Min Temperature -42 °F -29 °F -50 °F (1997)
Degree Days  
Heating Degree Days 102    
Moisture  
Dew Point -45 °F    
Average Humidity 66    
Maximum Humidity 74    
Minimum Humidity 46    
Precipitation  
Precipitation 0.00 in - - ()
Sea Level Pressure  
Sea Level Pressure 30.31 in    
Wind  
Wind Speed 11 mph ()    
Max Wind Speed 29 mph    
Max Gust Speed 34 mph    
Visibility 12.5 miles    
Events Snow    
Averages and records for this station are not official NWS values.
T = Trace of Precipitation, MM = Missing Value Source: Averaged Metar Reports

Daily Weather History Graph

Daily Weather History Graph

Search for Another Location

Airport or City:

Trip Planner

Search our weather history database for the weather conditions in past years. The results will help you decide how hot, cold, wet, or windy it might be!

Date:

Astronomy

Feb. 26, 2013 Rise Set
Actual Time 8:30 AM CST 4:37 PM CST
Civil Twilight 7:06 AM CST 6:01 PM CST
Nautical Twilight 5:35 AM CST 7:33 PM CST
Astronomical Twilight 3:55 AM CST 9:14 PM CST
Moon 7:44 PM CST (2/26) 7:11 AM CST (2/26)
Length of Visible Light 10h 54m
Length of Day
8h 06m
Full, 99% of the Moon is Illuminated
Feb 26
Full
Mar 4
Last Quarter
Mar 11
New
Mar 19
First Quarter
Mar 27
Full

Hourly Weather History & Observations

Time (CST) Temp. Windchill Dew Point Humidity Pressure Visibility Wind Dir Wind Speed Gust Speed Precip Events Conditions
12:00 AM -38 °F - -45 °F 48% 30.28 in 15 mi NW 8.1 mph - - Snow Snow
12:00 AM -38.2 °F -60.7 °F -45.4 °F 67% 30.28 in 15.0 mi NW 8.1 mph - N/A   Clear
1:00 AM -40.0 °F -64.5 °F -45.4 °F 74% 30.29 in 15.0 mi NW 9.2 mph - N/A   Clear
2:00 AM -38.2 °F -63.7 °F -45.4 °F 67% 30.29 in 15.0 mi NNW 10.4 mph - N/A   Clear
3:00 AM -40.0 °F -64.5 °F -47.2 °F 67% 30.29 in 15.0 mi North 9.2 mph - N/A   Clear
4:00 AM -41.8 °F -68.2 °F -47.2 °F 74% 30.30 in 15.0 mi North 10.4 mph - N/A Snow Low Drifting Snow
5:00 AM -41.8 °F -71.8 °F -47.2 °F 74% 30.30 in 15.0 mi North 13.8 mph - N/A   Partly Cloudy
6:00 AM -42 °F - -48 °F 52% 30.29 in 15 mi NNW 8.1 mph - - Snow Snow
6:00 AM -41.8 °F -65.1 °F -49.0 °F 67% 30.29 in 15.0 mi NNW 8.1 mph - N/A   Clear
7:00 AM -41.8 °F -72.9 °F -47.2 °F 74% 30.29 in 15.0 mi NNW 15.0 mph - N/A   Partly Cloudy
8:00 AM -41.8 °F -66.7 °F -47.2 °F 74% 30.29 in 15.0 mi North 9.2 mph - N/A   Partly Cloudy
9:00 AM -41.8 °F -65.1 °F -47.2 °F 74% 30.30 in 15.0 mi WNW 8.1 mph - N/A   Partly Cloudy
10:00 AM -41.8 °F -70.7 °F -47.2 °F 74% 30.30 in 15.0 mi WNW 12.7 mph - N/A   Partly Cloudy
11:00 AM -38.2 °F -66.2 °F -45.4 °F 67% 30.29 in 15.0 mi NW 12.7 mph 18.4 mph N/A Snow Low Drifting Snow
12:00 PM -39 °F - -46 °F 50% 30.30 in 10 mi North 18.4 mph - - Snow Snow
12:00 PM -38.2 °F -66.2 °F -45.4 °F 67% 30.30 in 10.0 mi North 12.7 mph 18.4 mph N/A   Scattered Clouds
1:00 PM -36.4 °F -61.5 °F -43.6 °F 67% 30.30 in 12.0 mi NNW 10.4 mph - N/A   Mostly Cloudy
2:00 PM -36.4 °F -66.9 °F -43.6 °F 67% 30.30 in 12.0 mi NNW 16.1 mph - N/A   Partly Cloudy
3:00 PM -32.8 °F -63.1 °F -41.8 °F 62% 30.30 in 12.0 mi NNW 17.3 mph - N/A   Mostly Cloudy
4:00 PM -32.8 °F -64.0 °F -41.8 °F 62% 30.32 in 10.0 mi NNW 18.4 mph 24.2 mph N/A Snow Low Drifting Snow
5:00 PM -34.6 °F -65.5 °F -43.6 °F 61% 30.32 in 8.0 mi NNW 17.3 mph 23.0 mph N/A Snow Low Drifting Snow
6:00 PM -36 °F - -44 °F 46% 30.34 in 10 mi NNW 23.0 mph - - Snow Snow
6:00 PM -36.4 °F -71.6 °F -43.6 °F 67% 30.34 in 10.0 mi NNW 23.0 mph - N/A Snow Low Drifting Snow
7:00 PM -36.4 °F -70.9 °F -43.6 °F 67% 30.33 in 10.0 mi NNW 21.9 mph - N/A Snow Low Drifting Snow
8:00 PM -36.4 °F -74.7 °F -43.6 °F 67% 30.33 in 8.0 mi NNW 28.8 mph 34.5 mph N/A Snow Low Drifting Snow
9:00 PM -36.4 °F -72.9 °F -43.6 °F 67% 30.35 in 8.0 mi NNW 25.3 mph 31.1 mph N/A Snow Low Drifting Snow
10:00 PM -36.4 °F -62.7 °F -43.6 °F 67% 30.38 in 10.0 mi NNW 11.5 mph - N/A Snow Low Drifting Snow
11:00 PM -36.4 °F -71.6 °F -43.6 °F 67% 30.38 in 10.0 mi NNW 23.0 mph 28.8 mph N/A Snow Low Drifting Snow